Preview of NWS' New Version of Forecast
This preview is not operational and should not be used for support decisions.

Regional Weather Roundup (RWR)

Issued by National Weather Service (NWS)

                            
000
ASUS45 KCYS 180410
RWRWY 

WYOMING REGIONAL WEATHER ROUNDUP
NATIONAL WEATHER SERVICE CHEYENNE WY
900 PM MST SUN FEB 17 2019

NOTE:  "FAIR" INDICATES FEW OR NO CLOUDS BELOW 12,000 FEET
WITH NO SIGNIFICANT WEATHER AND/OR OBSTRUCTIONS TO VISIBILITY.

WYZ001-180500-
...YELLOWSTONE NATIONAL PARK...
  
CITY           SKY/WX    TMP DP  RH WIND       PRES   REMARKS
LK YELLOWSTONE   N/A     -3  -7  82 CALM      29.84R                  
W YELLOWSTONE  NOT AVBL                                               

$$
WYZ002>013-054>058-071-098>099-180500-
...NORTHERN WYOMING...
  
CITY           SKY/WX    TMP DP  RH WIND       PRES   REMARKS
JACKSON        PTCLDY     5   1  83 N6        29.86R WCI  -6          
CODY           FLURRIES   3  -1  83 NE13      30.09S WCI -14          
GREYBULL       PTCLDY     3  -3  76 NW7       30.17R WCI  -9          
WORLAND        CLOUDY     9   1  70 N8        30.15R WCI  -3          
SHERIDAN       CLOUDY     2  -4  76 W7        30.24R WCI -11          
BUFFALO        CLOUDY     1  -5  75 N9        30.11S WCI -14          
GILLETTE       MOCLDY    -3  -8  79 N8        30.18R WCI -18          
HULETT         LGT SNOW   0  -8  71 MISG      30.20R                  
NEWCASTLE        N/A      0  -9  65 NW16      30.15S WCI -21          

$$
WYZ014>020-022>026-101>103-180500-
...CENTRAL WYOMING...
  
CITY           SKY/WX    TMP DP  RH WIND       PRES   REMARKS
BIG PINEY      PTCLDY    -5  -9  83 N13       29.87S WCI -24          
PINEDALE       PTCLDY    -9 -15  77 NW6       29.88R WCI -23          
DUBOIS         LGT SNOW   9   5  85 SE15      29.87S WCI  -8          
LANDER         LGT SNOW  12   7  80 N6        30.00S WCI   3          
RIVERTON       CLOUDY    11   5  77 E12       30.01R WCI  -3          
CASPER         CLOUDY     4  -1  80 NE13      30.07R WCI -13          
DOUGLAS        CLOUDY     4  -3  73 N8        30.12R WCI  -9          

$$
WYZ021-027>030-104>119-180500-
...SOUTHERN WYOMING...
  
CITY           SKY/WX    TMP DP  RH WIND       PRES   REMARKS
EVANSTON       CLOUDY    12   6  77 NE12      29.79R WCI  -2          
KEMMERER       PTCLDY    10   5  79 N12       29.82R WCI  -4          
FORT BRIDGER   CLOUDY    10   9  92 SE3       29.85R                  
ROCK SPRINGS   PTCLDY    10   5  80 NE21      29.85S WCI  -9          
DIXON          FAIR       6  -1  71 E7        29.87S WCI  -5          
RAWLINS        CLEAR      9   5  84 NE10      29.89R WCI  -5          
SARATOGA       FAIR      10  10 100 CALM      29.86F                  
LARAMIE        CLEAR      5   2  87 SE10      29.86S WCI -10          
CHEYENNE       LGT SNOW   8   4  83 N7        29.98R FOG     WCI  -3  
TORRINGTON     CLEAR      4  -2  76 N12       30.16R WCI -12          
PINE BLUFFS    CLOUDY     9   0  66 NE6       30.07R WCI  -1          

$$